x

8452951 - Potter Cove, Prudence Island, Ri (ptcr1) Weather Station

1:54 - Wed 27th Jul 2016 All times are EDT. -4 hours from GMT.

  • Wind
    3mph, 5mph gusts
  • Luft Temp 75°f
  • Sea Pressure 1012.9mb
  • 8452951 - Potter Cove, Prudence Island, Ri
  • 8452951 - Potter Cove, Prudence Island, Ri

More Historic Weather Station data

Upgrade to MSW Pro to gain access to the past 30 days of data for over 8000 Wavebouys and Weather Stations around the globe.

Join Pro

Comparision Forecast

View Surf forecast
   
Mi 07/27 1:54 3 5 mph 1012.9mb 75f
1:48 2 3 mph 1012.9mb 74f
1:42 2 3 mph 1012.9mb 74f
1:36 2
mph
1013mb 75f
1:30 2 3 mph 1013.1mb 76f
1:24 2
mph
1013.1mb 76f
1:18 2
mph
1013mb 76f
1:12 2 3 mph 1012.9mb 76f
1:06 2 3 mph 1013mb 76f
1:00 2 5 mph 1013mb 76f
12:54 2 5 mph 1013mb 76f
12:48 2 5 mph 1013mb 76f
12:42 2 3 mph 1013mb 76f
12:36 2 3 mph 1013mb 76f
12:30 2 5 mph 1013mb 76f
12:24 2 3 mph 1012.9mb 76f
12:18 3 5 mph 1012.9mb 76f
12:12 3 6 mph 1012.9mb 76f
12:06 2 6 mph 1012.8mb 77f
12:00 2 5 mph 1012.7mb 77f
Di 07/26 11:54 3 5 mph 1012.8mb 78f
11:48 2 5 mph 1012.8mb 77f
11:42 2 5 mph 1012.8mb 77f
11:36 3 8 mph 1012.8mb 78f
11:30 3 6 mph 1012.8mb 78f
11:24 3 7 mph 1012.6mb 78f
11:18 2 6 mph 1012.5mb -
11:12 3 8 mph 1012.5mb -
11:06 3 7 mph 1012.4mb -
11:00 3 9 mph - -
10:54 3 7 mph - -
10:48 3 8 mph 1012.2mb -
10:42 5 9 mph 1012.2mb -
10:36 5 7 mph 1012.2mb -
10:30 5 7 mph - 79f
10:24 5 7 mph - 79f
10:18 5 8 mph 1012.2mb 79f
10:12 5 8 mph 1012.1mb 79f
10:06 5 8 mph 1012.1mb 79f
10:00  -  mph - 79f
9:54  -  mph - 79f
9:48 5 7 mph - -
9:42 6 9 mph - -
9:36 5 7 mph - -
9:30 5 7 mph - -
9:24 3 7 mph - -
9:18 3 5 mph - 79f
9:12 3 6 mph - 80f
9:06 5 7 mph - 80f
9:00  -  mph - 80f
8:54  -  mph - 81f
8:48 5 7 mph 1010.8mb -
8:42 5 6 mph 1010.7mb -
8:36 5 7 mph 1010.7mb -
8:30 3 6 mph - 81f
8:24 5 7 mph - 82f
8:18  -  mph - 82f
8:12  -  mph - 82f
8:06  -  mph - 83f
8:00  -  mph - 83f
7:30 5 9 mph - 84f
7:24 5 9 mph - 85f
7:18 5 9 mph 1009.9mb -
7:12 5 9 mph 1009.9mb -
7:06 6 10 mph 1009.8mb -
7:00  -  mph 1009.8mb -
6:54  -  mph 1009.8mb -
6:48  -  mph 1009.8mb -
6:42  -  mph 1009.8mb -
6:36  -  mph 1009.7mb -
6:30 6 10 mph 1009.7mb 87f
6:24 6 11 mph 1009.7mb 88f
6:18 5 13 mph 1009.7mb -
6:12 7 13 mph 1009.7mb -
6:06 7 11 mph 1009.7mb -
6:00  -  mph - 89f
5:54  -  mph - 89f
5:48 7 14 mph - -
5:42 7 14 mph - -
5:36 7 13 mph - -
5:30 8 13 mph 1009.8mb 89f
5:24 7 14 mph 1009.7mb 90f
5:18 8 16 mph 1009.6mb 90f
5:12 7 15 mph 1009.6mb 90f
5:06 7 11 mph 1009.5mb 90f
5:00 7 14 mph 1009.5mb 90f
4:54 6 11 mph 1009.5mb 90f
4:48 6 16 mph 1009.5mb 90f
4:42 5 10 mph 1009.5mb 91f
4:36 5 10 mph 1009.5mb 90f
4:30 6 11 mph 1009.5mb 90f
4:24 7 16 mph 1009.5mb 90f
4:18 6 14 mph 1009.5mb 91f
4:12 8 13 mph 1009.5mb 90f
4:06 8 15 mph 1009.5mb 90f
4:00 6 15 mph 1009.5mb 91f
3:54 6 13 mph 1009.6mb 91f
3:48 6 15 mph 1009.5mb 91f
3:42 6 11 mph 1009.4mb 90f
3:36 6 11 mph 1009.4mb 90f
3:30 6 11 mph 1009.5mb 90f
3:24 7 11 mph 1009.5mb 90f
3:18 8 15 mph 1009.6mb 89f
3:12 8 16 mph 1009.6mb 89f
3:06 8 14 mph 1009.6mb 90f
3:00 7 15 mph 1009.6mb 90f
2:54 7 14 mph 1009.7mb 90f
2:48 6 11 mph 1009.7mb 90f
2:42 8 16 mph 1009.7mb 90f
2:36 8 15 mph 1009.6mb 90f
2:30 7 14 mph 1009.7mb 90f
2:24 6 13 mph 1009.7mb 90f
2:18 8 15 mph 1009.7mb 89f
2:12 6 9 mph 1009.7mb 89f
2:06 8 16 mph 1009.8mb 89f
2:00 8 15 mph 1009.8mb 89f
1:54 6 11 mph 1009.7mb 89f
1:48 2 7 mph 1009.8mb 89f
1:42 8 15 mph 1009.7mb 88f
1:36 9 16 mph 1009.8mb 87f
1:30 7 14 mph 1010mb 88f
1:24 7 14 mph 1010.1mb 89f
1:18 6 9 mph 1010.1mb 89f
1:12 6 10 mph 1010.1mb 89f
1:06 6 13 mph 1010.1mb 88f
1:00 8 14 mph 1010.1mb 88f
12:54 7 10 mph 1010.1mb 88f
12:48 7 13 mph 1010mb 88f
12:42 8 16 mph 1010.1mb 87f
12:36 9 16 mph 1010.1mb 87f
12:30 8 17 mph 1010.1mb 87f
12:24 7 11 mph 1010.2mb 87f
12:18 7 13 mph 1010.2mb 87f
12:12 9 15 mph 1010.2mb 86f
12:06 8 17 mph 1010.2mb 86f
12:00 8 14 mph 1010.3mb 87f
11:54 6 10 mph 1010.3mb 87f
11:48 5 10 mph 1010.4mb 86f
11:42 6 11 mph 1010.5mb 86f
11:36 6 10 mph 1010.5mb 86f
11:30 8 14 mph 1010.5mb 85f
11:24 7 13 mph 1010.5mb 86f
11:18 9 17 mph 1010.6mb 86f
11:12 8 15 mph 1010.6mb 86f
11:06 8 14 mph 1010.6mb 85f
11:00 7 14 mph 1010.6mb 85f
10:54 7 13 mph 1010.7mb 85f
10:48 7 13 mph - -
10:42 7 10 mph 1010.8mb 85f
10:36 6 11 mph 1010.8mb 85f
10:30 8 14 mph 1010.7mb 85f
10:24 6 9 mph 1010.8mb 85f
10:18 6 9 mph 1010.8mb 85f
10:12 6 10 mph 1010.8mb 84f
10:06 6 13 mph 1010.8mb 84f
10:00 6 11 mph 1010.9mb 83f
9:54 6 9 mph 1010.9mb 83f
9:48 5 8 mph 1011mb 83f
9:42 5 9 mph 1011mb 84f
9:36 3 8 mph 1011mb 83f
9:30 5 8 mph 1011mb 83f
9:24 5 8 mph 1011mb 82f
9:18 2 5 mph 1010.9mb 82f
9:12 2 5 mph 1011mb 81f
9:06 5 7 mph 1011mb 81f
9:00 5 7 mph 1011mb 80f
8:54 6 7 mph 1011.1mb 80f
8:48 6 9 mph 1011.1mb 80f
8:42 6 9 mph 1011.1mb 79f
8:36 5 7 mph 1011.1mb 80f
8:30 6 9 mph 1011.1mb 79f
8:24 6 10 mph 1011.1mb 79f
8:18 6 10 mph 1011.2mb 78f
8:12 6 10 mph 1011.2mb 78f
8:06 5 10 mph 1011.2mb 78f
8:00 7 11 mph 1011.1mb 78f
7:54 6 10 mph 1011.1mb 77f
7:48 7 11 mph 1011.1mb 77f
7:42 6 9 mph 1011.1mb 77f
7:36 6 10 mph 1011.1mb 76f
7:30 6 10 mph 1011mb 76f
7:24 6 10 mph 1011mb 76f
7:18 7 14 mph 1011mb 76f
7:12 7 11 mph 1010.9mb 76f
7:06 7 10 mph 1010.9mb 76f
7:00 7 10 mph 1010.9mb 76f
6:54 7 10 mph 1010.9mb 75f
6:48 6 10 mph 1010.9mb 75f
6:42 6 10 mph 1010.9mb 75f
6:36 7 9 mph 1010.8mb 74f
6:30 6 9 mph 1010.8mb 74f
6:24 5 7 mph 1010.7mb 73f
6:18 5 7 mph 1010.7mb 73f
6:12 5 7 mph 1010.7mb 73f
6:06 5 8 mph 1010.7mb 73f
6:00 5 8 mph 1010.6mb 72f
5:54 5 8 mph 1010.6mb 72f
5:48 6 8 mph 1010.4mb 72f
5:42 6 9 mph 1010.4mb 72f
5:36 5 9 mph 1010.3mb 72f
5:30 6 9 mph 1010.3mb 72f
5:24 5 9 mph 1010.3mb 72f
5:18 6 8 mph 1010.2mb 72f
5:12 5 6 mph 1010.1mb 72f
5:06 5 7 mph 1010.1mb 72f
5:00 6 10 mph 1010.1mb 72f
4:54 5 7 mph 1010.1mb 72f
4:48 5 6 mph 1010mb 72f
4:42 5 7 mph 1010mb 72f
4:36 5 6 mph 1009.9mb 72f
4:30 5
mph
1009.8mb 71f
4:24 3 5 mph 1009.8mb 72f
4:18 2 5 mph 1009.8mb 71f
4:12 2 3 mph 1009.8mb 71f
4:06 2 5 mph 1009.7mb 72f
4:00 2 3 mph 1009.7mb 72f
3:54 2 3 mph 1009.7mb 72f
3:48 5 7 mph 1009.6mb 73f
3:42 6 8 mph 1009.5mb 73f
3:36 6 8 mph 1009.5mb 73f
3:30 6 9 mph 1009.5mb 73f
3:24 6 8 mph 1009.5mb 73f
3:18 6 9 mph 1009.5mb 73f
3:12 5 7 mph 1009.5mb 73f
3:06 5 6 mph 1009.5mb 73f
3:00 6 7 mph 1009.4mb 73f
2:54 6 7 mph 1009.4mb 73f
2:48 6 9 mph 1009.4mb 73f
2:42 6 8 mph 1009.3mb 73f
2:36 7 10 mph 1009.2mb 73f
2:30 6 8 mph 1009.3mb 73f
2:24 5 7 mph 1009.3mb 73f
2:18 5 7 mph 1009.3mb 74f
2:12 5 7 mph 1009.2mb 74f
2:06 5 7 mph 1009.2mb 74f
2:00 6 8 mph 1009.2mb 74f
1:54 5 8 mph 1009.3mb 74f
1:48 5 8 mph 1009.3mb -
1:42 6 9 mph 1009.3mb -
1:36 6 8 mph 1009.4mb -
1:30 6 10 mph 1009.5mb 74f
1:24 5 8 mph 1009.5mb 74f
1:18 5 8 mph 1009.6mb 74f
1:12 5 8 mph 1009.7mb 74f
1:06 6 8 mph 1009.7mb 74f
1:00 5 7 mph 1009.6mb 74f
12:54 5 8 mph 1009.7mb 74f
12:48 6 9 mph 1009.8mb 74f
12:42 5 8 mph 1009.7mb 74f
12:36 6 9 mph 1009.8mb 75f
12:30 6 9 mph 1009.9mb 75f
12:24 6 9 mph 1009.8mb 75f
12:18 6 9 mph 1009.8mb 76f
12:12 3 6 mph 1009.9mb 76f
12:06 5 6 mph 1009.9mb 76f
12:00 5 8 mph 1010mb 76f
Mo 07/25 11:54 5 8 mph 1010.1mb 76f
11:48 7 10 mph 1010.2mb 76f
11:42 6 11 mph 1009.9mb 76f
11:36 7 10 mph 1009.9mb 76f
11:30 7 11 mph 1010.1mb 76f
11:24 7 13 mph 1009.9mb 76f
11:18 3 9 mph 1009.7mb 75f
11:12 3 7 mph 1009.7mb 74f
11:06 2 3 mph 1009.8mb 74f
11:00 1 2 mph - 74f
10:54  -  1 mph - 74f
10:48  -  1 mph 1009.5mb -
10:42 1 2 mph 1009.4mb -
10:36 2 3 mph 1009.4mb -
10:30 2 3 mph - 75f
10:24 2 6 mph - 75f
10:18 3 6 mph - 75f
10:12 2 7 mph - 75f
10:06 5 8 mph - 75f
10:00 7 10 mph - 75f
9:54 6 10 mph - 75f
9:48 6 11 mph 1009.5mb -
9:42 7 10 mph 1009.6mb -
9:36 7 11 mph 1009.6mb -
9:30 7 14 mph - -
9:24 7 13 mph - -
9:18 7 11 mph - 75f
9:12 7 13 mph - 75f
9:06 7 11 mph - 75f
9:00 7 13 mph - 76f
8:54 7 13 mph - 76f
8:48 8 13 mph - -
8:42 8 14 mph - -
8:36 7 15 mph - -
8:30 6 11 mph - 76f
8:24 6 9 mph - 76f
8:18 6 10 mph - -
8:12 6 9 mph - -
8:06 6 8 mph - -
8:00  -  mph - 75f
7:54  -  mph - 75f
7:48 5 8 mph 1010.9mb -
7:42 5 8 mph 1010.9mb -
7:36 5 7 mph 1010.8mb -
7:30 6 10 mph 1010.8mb -
7:24 7 9 mph 1010.6mb -
7:18 6 10 mph 1010.6mb -
7:12 3 8 mph 1010.5mb -
7:06 5 9 mph 1010.4mb -
7:00  -  mph - 75f
6:54  -  mph - 75f
6:48 6 11 mph 1010.1mb -
6:42 6 11 mph 1010.1mb -
6:36 6 14 mph 1010.1mb -
6:30 6 11 mph 1010.1mb -
6:24 6 13 mph 1010.1mb -
6:18 7 15 mph - 75f
6:12 6 11 mph - 75f
6:06 7 13 mph - 75f
6:00 7 14 mph - 75f
5:54 7 14 mph - 75f
5:48  -  mph - 75f
5:42  -  mph - 75f
5:36  -  mph - 75f
5:30 7 16 mph 1010.3mb 76f
5:24 7 13 mph 1010.4mb 76f
5:18 7 16 mph 1010.6mb 76f
5:12 7 14 mph 1010.6mb 76f
5:06 6 11 mph 1010.7mb 77f
5:00 7 18 mph 1010.8mb 77f
4:54 7 14 mph 1010.9mb 78f
4:48 6 11 mph 1011.1mb 78f
4:42 8 16 mph 1011.3mb 78f
4:36 6 13 mph 1011.4mb 78f
4:30 8 16 mph 1011.3mb 77f
4:24 8 14 mph 1011.4mb 78f
4:18 7 15 mph 1011.4mb 78f
4:12 7 13 mph 1011.6mb 79f
4:06 6 11 mph 1011.5mb 80f
4:00 7 15 mph 1011.6mb 80f
3:54 7 13 mph 1011.7mb 80f
3:48 8 14 mph 1011.8mb 80f
3:42 7 15 mph 1011.7mb 80f
3:36 7 13 mph 1011.7mb 80f
3:30 7 16 mph 1011.8mb 80f
3:24 8 14 mph 1011.9mb 80f
3:18 7 17 mph 1011.9mb 80f
3:12 7 16 mph 1012mb 81f
3:06 6 14 mph 1011.9mb 81f
3:00 7 14 mph 1012.1mb 82f
2:54 9 16 mph 1012.2mb 81f
2:48 7 15 mph 1012.2mb 82f
2:42 7 15 mph 1012.3mb 81f
2:36 8 17 mph 1012.4mb 82f
2:30 8 18 mph 1012.4mb 82f
2:24 8 15 mph 1012.5mb 82f
2:18 8 16 mph 1012.5mb 82f
2:12 6 13 mph 1012.6mb 82f
2:06 8 15 mph 1012.6mb 82f
2:00 7 13 mph 1012.7mb 82f
1:54 7 13 mph 1012.6mb 83f
1:48 6 10 mph 1012.6mb 83f
1:42 7 15 mph 1012.6mb 83f
1:36 7 16 mph 1012.6mb 83f
1:30 7 14 mph 1012.8mb 83f
1:24 8 14 mph 1012.9mb 83f
1:18 6 13 mph 1012.8mb 83f
1:12 8 15 mph 1012.8mb 83f
1:06 7 14 mph 1012.9mb 83f
1:00 9 17 mph 1012.8mb 83f
12:54 6 13 mph 1012.8mb 84f
12:48 6 11 mph 1012.9mb 83f
12:42 7 14 mph 1012.9mb 83f
12:36 7 13 mph 1013mb 83f
12:30 7 13 mph 1013.2mb 83f
12:24 3 10 mph 1013.2mb 83f
12:18 7 13 mph 1013.2mb 83f
12:12 7 13 mph 1013.2mb 83f
12:06 3 8 mph 1013.2mb 83f
12:00 5 10 mph 1013.3mb 83f
11:54 6 11 mph 1013.3mb 83f
11:48 3 10 mph 1013.5mb 83f
11:42 5 9 mph 1013.5mb 83f
11:36 6 10 mph 1013.6mb 82f
11:30 5 10 mph 1013.6mb 82f
11:24 5 11 mph 1013.5mb 82f
11:18 7 11 mph 1013.5mb 82f
11:12 6 13 mph 1013.6mb 82f
11:06 5 9 mph 1013.6mb 83f
11:00 6 11 mph 1013.7mb 83f
10:54 5 10 mph 1013.7mb 83f
10:48 6 11 mph 1013.7mb 82f
10:42 7 11 mph 1013.7mb 82f
10:36 6 13 mph 1013.7mb 82f
10:30 6 11 mph 1013.8mb 82f
10:24 6 11 mph 1013.7mb 81f
10:18 6 10 mph 1013.7mb 80f
10:12 6 11 mph 1013.7mb 81f
10:06 5 8 mph 1013.7mb 80f
10:00 3 9 mph 1013.7mb 80f
9:54 6 10 mph 1013.8mb 79f
9:48 2 7 mph 1013.8mb 79f
9:42 3 8 mph 1013.9mb 78f
9:36 5 8 mph 1014mb 78f
9:30 3 7 mph 1014.1mb 78f
9:24 5 7 mph 1014.1mb 78f
9:18 3 7 mph 1014mb 78f
9:12 3 8 mph 1014mb 77f
9:06 3 6 mph 1014.2mb 77f
9:00 5 8 mph 1014.3mb 76f
8:54 3 7 mph 1014.3mb 77f
8:48 3 7 mph 1014.4mb 76f
8:42 5 7 mph 1014.5mb 76f
8:36 2 6 mph 1014.6mb 75f
8:30 5 9 mph 1014.6mb 75f
8:24 3 7 mph 1014.6mb 75f
8:18 3 7 mph 1014.7mb 75f
8:12 5 8 mph 1014.7mb 74f
8:06 3 7 mph 1014.7mb 74f
8:00 3 6 mph 1014.9mb 74f
7:54 5 8 mph 1014.9mb 74f
7:48 5 7 mph 1014.9mb 74f
7:42 3 8 mph 1014.8mb 73f
7:36 5 9 mph 1014.8mb 73f
7:30 3 8 mph 1014.9mb 74f
7:24 2 7 mph 1014.9mb 74f
7:18 3 6 mph 1014.9mb 73f
7:12 2 5 mph 1014.9mb 73f
7:06 3 6 mph 1015mb 73f
7:00 2 3 mph 1015mb 73f
6:54 1 2 mph 1015mb 72f
6:48 2 6 mph 1015mb 72f
6:42 2 5 mph 1014.9mb 72f
6:36 2 5 mph 1014.9mb 73f
6:30 2 5 mph 1014.9mb 72f
6:24 2 3 mph 1014.9mb 72f
6:18 1 3 mph 1014.9mb 72f
6:12 2 3 mph 1014.8mb 72f
6:06 2 5 mph 1014.9mb 72f
6:00 2 3 mph 1014.7mb 72f
5:54 2 5 mph 1014.7mb 71f
5:48 2 5 mph 1014.7mb 71f
5:42 2 5 mph 1014.8mb 71f
5:36 1 2 mph 1014.8mb 71f
5:30 2 3 mph 1014.8mb 71f
5:24 2 3 mph 1014.8mb 71f
5:18 2 3 mph 1014.8mb 71f
5:12 3 5 mph 1014.8mb 70f
5:06 2 5 mph 1014.8mb 70f
5:00 1 2 mph 1014.7mb 70f
4:54 3 5 mph 1014.7mb 70f
4:48 2 3 mph 1014.6mb 70f
4:42 2 3 mph 1014.7mb 69f
4:36 1 2 mph 1014.6mb 70f
4:30 1 2 mph 1014.6mb 71f
4:24 1 2 mph 1014.6mb 71f
4:18 5 6 mph 1014.7mb 71f
4:12 3
mph
1014.6mb 71f
4:06 3
mph
1014.6mb 71f
4:00 3 5 mph 1014.7mb 72f
3:54 2 3 mph 1014.7mb 72f
3:48 2 3 mph 1014.6mb 71f
3:42 2 3 mph 1014.7mb 72f
3:36 3 5 mph 1014.6mb 71f
3:30 2 3 mph 1014.7mb 71f
3:24 2
mph
1014.8mb 71f
3:18 2 3 mph 1014.9mb 71f
3:12 3 5 mph 1014.9mb 71f
3:06 3 5 mph 1015mb 72f
3:00 3 5 mph 1015mb 72f
2:54 3 6 mph 1015mb 72f
2:48 3 5 mph 1015mb 71f
2:42 3 5 mph 1014.9mb 72f
2:36 2 3 mph 1014.9mb 72f
2:30 3 5 mph 1015mb 72f
2:24 3 5 mph 1015mb 72f
2:18 3
mph
1014.9mb 72f
2:12 3 5 mph 1015mb 72f
2:06 3 5 mph 1014.9mb 70f
2:00 2 3 mph 1015mb 71f
1:54 2 3 mph 1015mb 71f
1:48 3 5 mph 1015mb -
1:42 3 5 mph 1015.1mb -
1:36 3 5 mph 1015.3mb -
1:30 3 5 mph 1015.3mb 73f
1:24 3 5 mph 1015.3mb 72f
1:18 3 5 mph 1015.3mb 72f
1:12 3 5 mph 1015.3mb 73f
1:06 2 5 mph 1015.3mb 72f
1:00 2 3 mph 1015.3mb 73f
12:54 1 3 mph 1015.4mb 72f
12:48 1 2 mph 1015.5mb 72f
12:42 2 3 mph 1015.5mb 73f
12:36 2 3 mph 1015.6mb 73f
12:30 2 5 mph 1015.6mb 74f
12:24 1 2 mph 1015.7mb 74f
12:18 1 3 mph 1015.7mb 74f
12:12 5 10 mph 1015.6mb 74f
12:06 2 6 mph 1015.7mb 74f
12:00 3 6 mph 1015.7mb 74f
So 07/24 11:54 5 8 mph 1015.7mb 74f
11:48 2 5 mph 1015.8mb 74f
11:42 5 10 mph 1015.8mb 74f
11:36 3 7 mph 1015.6mb 73f
11:30 3 6 mph 1015.6mb 73f
11:24 5 8 mph 1015.7mb 73f
11:18 7 9 mph - 73f
11:12 7 9 mph - 74f
11:06 7 9 mph - 74f
11:00  -  mph 1015.6mb -
10:54  -  mph 1015.6mb -
10:48 3 7 mph 1015.6mb -
10:42 3 5 mph 1015.6mb -
10:36 2 3 mph 1015.6mb -
10:30 2 3 mph - -
10:24 3 5 mph - -
10:18 2 5 mph 1015.7mb 74f
10:12 2 5 mph 1015.7mb 74f
10:06 3 5 mph 1015.7mb 74f
10:00  -  mph - 74f
9:54  -  mph - 74f
9:48 3 9 mph - -
9:42 3 7 mph - -
9:36 5 9 mph - -
9:30 3 7 mph 1015.4mb -
9:24 5 7 mph 1015.4mb -
9:18 5 6 mph 1015.3mb -
9:12 3 6 mph 1015.3mb -
9:06 2 5 mph 1015.3mb -
9:00 3 6 mph - 75f
8:54 3 5 mph - 75f
8:48 5 8 mph 1015.1mb -
8:42 6 9 mph 1015mb -
8:36 5 6 mph 1015mb -
8:30 3 6 mph - -
8:24 5 8 mph - -
8:18 5 8 mph - 75f
8:12 5 9 mph - 75f
8:06 3 10 mph - 75f
8:00  -  mph - 75f
7:54  -  mph - 75f
7:48 5 8 mph - -
7:42 5 8 mph - -
7:36 3 7 mph - -
7:30 5 8 mph - -
7:24 3 8 mph - -
7:18 3 10 mph - -
7:12 3 7 mph - -
7:06 5 7 mph - -
7:00  -  mph - 76f
6:54  -  mph - 76f
6:48 5 8 mph - -
6:42 5 13 mph - -
6:36 5 13 mph - -
6:30 6 9 mph - -
6:24 6 13 mph - -
6:18 7 15 mph 1014.1mb 78f
6:12 6 13 mph 1014mb 78f
6:06 5 10 mph 1013.9mb 77f
6:00  -  mph - 77f
5:54  -  mph - 76f
5:48 8 17 mph - 76f
5:42 7 14 mph - 76f
5:36 7 16 mph - 77f
5:30 8 14 mph 1013.7mb 77f
5:24 8 14 mph 1013.7mb 76f
5:18 7 15 mph 1013.8mb 77f
5:12 8 16 mph 1013.8mb 77f
5:06 9 16 mph 1013.8mb 77f
5:00 8 17 mph 1013.9mb 77f
4:54 8 17 mph 1013.9mb 77f
4:48 8 18 mph 1014mb 77f
4:42 7 16 mph 1013.9mb 78f
4:36 8 18 mph 1013.9mb 78f
4:30 8 16 mph 1014mb 77f
4:24 8 20 mph 1014mb 78f
4:18 8 20 mph 1014mb 77f
4:12 8 14 mph 1014.1mb 78f
4:06 8 16 mph 1014.2mb 78f
4:00 9 16 mph 1014.2mb 78f
3:54 10 18 mph 1014.3mb 78f
3:48 9 17 mph 1014.3mb 79f
3:42 8 18 mph 1014.3mb 79f
3:36 8 15 mph 1014.3mb 79f
3:30 8 14 mph 1014.3mb 79f
3:24 7 16 mph 1014.3mb 80f
3:18 6 13 mph 1014.3mb 80f
3:12 7 13 mph 1014.3mb 79f
3:06 8 14 mph 1014.4mb 79f
3:00 6 13 mph 1014.4mb 80f
2:54 7 14 mph 1014.5mb 79f
2:48 7 13 mph 1014.4mb 80f
2:42 6 11 mph 1014.4mb 80f
2:36 7 13 mph 1014.4mb 80f
2:30 5 10 mph 1014.5mb 80f
2:24 7 14 mph 1014.5mb 80f
2:18 6 13 mph 1014.6mb 80f
2:12 5 11 mph 1014.6mb 80f
2:06 5 14 mph 1014.8mb 80f
2:00 5 11 mph 1014.8mb 79f
1:54 9 16 mph 1014.8mb 79f
1:48 7 14 mph 1014.7mb 80f
1:42 7 13 mph 1014.7mb 79f
1:36 7 11 mph 1014.7mb 79f
1:30 6 10 mph 1014.7mb 80f
1:24 6 11 mph 1014.8mb 80f
1:18 5 9 mph 1014.8mb 80f
1:12 6 10 mph 1014.9mb 80f
1:06 3 9 mph 1014.9mb 80f
1:00 6 8 mph 1014.8mb 81f
12:54 2 6 mph 1014.8mb 81f
12:48 2 5 mph 1014.8mb 81f
12:42 2 6 mph 1014.7mb 81f
12:36 3 6 mph 1014.6mb 81f
12:30 5 6 mph 1014.6mb 80f
12:24 3 6 mph 1014.6mb 80f
12:18 3 6 mph 1014.7mb 81f
12:12 2 6 mph 1014.7mb 81f
12:06 2 5 mph 1014.8mb 81f
12:00 3 5 mph 1014.7mb 82f
11:54 2 3 mph 1014.7mb 80f
11:48 3 5 mph 1014.7mb 81f
11:42  -  2 mph 1014.7mb 81f
11:36 1 5 mph 1014.7mb 81f
11:30 2 6 mph 1014.7mb 80f
11:24 3 7 mph 1014.7mb 80f
11:18 2 5 mph 1014.7mb 79f
11:12 2 5 mph 1014.7mb 79f
11:06 3 7 mph 1014.7mb 79f
11:00 5 8 mph 1014.7mb 79f
10:54 3 7 mph 1014.8mb 78f
10:48 2 3 mph 1014.7mb 79f
10:42 3 5 mph 1014.7mb 79f
10:36 5 6 mph 1014.7mb 78f
10:30 5 7 mph 1014.7mb 78f
10:24 3 6 mph 1014.6mb 78f
10:18 5 7 mph 1014.6mb 78f
10:12 6 7 mph 1014.6mb 78f
10:06 7 8 mph 1014.7mb 77f
10:00 6 8 mph 1014.8mb 78f
9:54 7 9 mph 1014.8mb 77f
9:48 7 10 mph 1014.8mb 78f
9:42 3 6 mph 1014.7mb 78f
9:36 5 9 mph 1014.6mb 78f
9:30 3 6 mph 1014.6mb 79f
9:24 3 6 mph 1014.6mb 79f
9:18 3 7 mph 1014.6mb 78f
9:12 2 5 mph 1014.6mb 78f
9:06 2 6 mph 1014.6mb 78f
9:00 3 6 mph 1014.6mb 77f
8:54 3 8 mph 1014.5mb 76f
8:48 5 10 mph 1014.4mb 76f
8:42 3 6 mph 1014.3mb 76f
8:36 6 9 mph 1014.3mb 75f
8:30 5 9 mph 1014.4mb 75f
8:24 3 7 mph 1014.4mb 75f
8:18 5 9 mph 1014.4mb 75f
8:12 5 11 mph 1014.4mb 74f
8:06 6 10 mph 1014.4mb 74f
8:00 6 10 mph 1014.5mb 74f
7:54 6 10 mph 1014.4mb 74f
7:48 6 11 mph 1014.3mb 74f
7:42 6 9 mph 1014.3mb 73f
7:36 5 11 mph 1014.3mb 73f
7:30 3 9 mph 1014.2mb 73f
7:24 5 8 mph 1014.3mb 73f
7:18 3 8 mph 1014.3mb 73f
7:12 6 9 mph 1014.3mb 73f
7:06 2 8 mph 1014.3mb 73f
7:00 3 8 mph 1014.2mb 72f
6:54 5 8 mph 1014.1mb 72f
6:48 5 9 mph 1014.1mb 72f
6:42 5 7 mph 1014mb 72f
6:36 3 7 mph 1014mb 71f
6:30 3 6 mph 1014mb 71f
6:24 2 5 mph 1013.9mb 71f
6:18 2 7 mph 1013.8mb 71f
6:12 3 6 mph 1013.7mb 71f
6:06 3 6 mph 1013.7mb 71f
6:00 3 6 mph 1013.7mb 70f
5:54 3 6 mph 1013.7mb 70f
5:48 3 7 mph 1013.5mb 70f
5:42 3 7 mph 1013.5mb 69f
5:36 5 8 mph 1013.4mb 69f
5:30 3 8 mph 1013.3mb 70f
5:24 3 7 mph 1013.3mb 70f
5:18 3 8 mph 1013.2mb 70f
5:12 3 6 mph 1013.2mb 70f
5:06 2 5 mph 1013.2mb 70f
5:00 3 6 mph 1013.1mb 71f
4:54 3 6 mph 1013.1mb 71f
4:48 2 6 mph 1013mb 70f
4:42 3 8 mph 1013mb 70f
4:36 5 7 mph 1012.9mb 71f
4:30 3 7 mph 1012.9mb 71f
4:24 5 10 mph 1012.9mb 71f
4:18 5 9 mph 1012.8mb 71f
4:12 5 8 mph 1012.8mb 71f
4:06 3 7 mph 1012.9mb 71f
4:00 5 7 mph 1012.9mb 71f
3:54 5 14 mph 1012.8mb 71f
3:48 5 8 mph 1012.9mb 71f
3:42 5 13 mph 1012.8mb 71f
3:36 5 10 mph 1012.8mb 72f
3:30 6 10 mph 1012.8mb 72f
3:24 5 9 mph 1012.9mb 71f
3:18 5 8 mph 1013mb 71f
3:12 5 9 mph 1013mb 71f
3:06 6 10 mph 1013mb 71f
3:00 3 7 mph 1013mb 71f
2:54 2 5 mph 1013mb 71f
2:48 3 7 mph 1013.1mb 71f
2:42 3 7 mph 1013.1mb 71f
2:36 3 7 mph 1013mb 71f
2:30 5 7 mph 1013mb 71f
2:24 5 7 mph 1013mb 71f
2:18 3 8 mph 1013mb 72f
2:12 5 8 mph 1013mb 72f
2:06 5 10 mph 1012.9mb 72f
2:00 3 7 mph 1012.7mb 73f
1:54 3 8 mph 1012.6mb 73f
1:48 3 10 mph - -
1:42 3 8 mph 1012.6mb 72f
1:36 3 6 mph 1012.6mb 72f
1:30 3 7 mph 1012.5mb 72f
1:24 3 6 mph 1012.5mb 72f
1:18 3 7 mph 1012.3mb 72f
1:12 2 3 mph 1012.4mb 72f
1:06 2 3 mph 1012.3mb 73f
1:00 2 3 mph 1012.3mb 73f
12:54 2 6 mph 1012.2mb 73f
12:48 2 6 mph 1012.2mb 73f
12:42 3 7 mph 1012.2mb 73f
12:36 3 7 mph 1012.3mb 73f
12:30 3 6 mph 1012.2mb 73f
12:24 5 8 mph 1012.2mb 74f
12:18 3 7 mph 1012.2mb 74f
12:12 3 6 mph 1012.1mb 74f
12:06 3 6 mph 1012.2mb 74f
12:00 5 8 mph 1012mb 74f
Sa 07/23 11:54 3 7 mph 1011.9mb 73f
11:48 2 5 mph 1011.9mb 73f
11:42 2
mph
1011.8mb 73f
11:36 2
mph
1011.9mb 72f
11:30 2
mph
1011.8mb 72f
11:24 2 3 mph 1011.7mb 73f
11:18 2 5 mph - 73f
11:12 3 5 mph - 73f
11:06 5 7 mph - 73f
11:00  -  mph - 73f
10:54  -  mph - 75f
10:48 7 9 mph 1011.7mb -
10:42 7 9 mph 1011.6mb -
10:36 7 11 mph 1011.5mb -
10:30 8 13 mph 1011.4mb -
10:24 9 14 mph 1011.3mb -
10:18  -  mph 1011.3mb 76f
10:12  -  mph 1011.4mb 76f
10:06  -  mph 1011.3mb 76f
10:00  -  mph - 76f
9:54  -  mph - 77f
9:48  -  mph - 77f
9:42  -  mph - 76f
9:36  -  mph - 76f
9:30 6 9 mph - -
9:24 9 13 mph - -
9:18 10 17 mph - -
9:12 10 15 mph - -
9:06 11 17 mph - -
9:00  -  mph - 76f
8:54  -  mph - 76f
8:48 11 16 mph 1009.8mb -
8:42 10 16 mph 1009.8mb -
8:36 9 21 mph 1009.7mb -
8:30 5 8 mph - -
8:24 8 17 mph - -
8:18 22 44 mph 1009.7mb -
8:12 9 20 mph 1009.1mb -
8:06 7 13 mph 1008.6mb -
8:00 6 9 mph 1008.6mb -
7:54 6 10 mph 1008.5mb -
7:48 6 10 mph - -
7:42 6 10 mph - -
7:36 5 9 mph - -
7:30 6 9 mph - -
7:24 6 8 mph - -
7:18 6 10 mph 1007.9mb -
7:12 7 10 mph 1007.9mb 87f
7:06 7 11 mph 1007.9mb 87f
7:00  -  mph - 88f
6:54  -  mph - 87f
6:48  -  mph - 88f
6:42  -  mph - 87f
6:36  -  mph - 87f
6:30 8 13 mph - -
6:24 10 16 mph - -
6:18 8 14 mph - -
6:12 7 13 mph - -
6:06 8 14 mph - -
6:00 9 16 mph - -
5:54 7 11 mph - -
5:48 8 13 mph 1007.7mb 90f
5:42 9 13 mph 1007.4mb 90f
5:36 8 13 mph 1007.4mb 90f
5:30 7 11 mph 1007.4mb 90f
5:24 6 11 mph 1007.3mb 90f
5:18 8 15 mph 1007.4mb 91f
5:12 9 15 mph 1007.6mb 91f
5:06 11 20 mph 1007.6mb 91f
5:00 8 16 mph 1007.6mb 91f
4:54 7 11 mph 1007.6mb 91f
4:48 7 13 mph 1007.6mb 91f
4:42 9 15 mph 1007.6mb 91f
4:36 10 16 mph 1007.7mb 90f
4:30 10 20 mph 1007.7mb 91f
4:24 9 15 mph 1007.7mb 91f
4:18 9 13 mph 1007.7mb 91f
4:12 9 16 mph 1007.7mb 91f
4:06 8 16 mph 1007.8mb 91f
4:00 10 17 mph 1007.8mb 91f
3:54 8 14 mph 1007.8mb 91f
3:48 8 14 mph 1007.8mb 91f
3:42 11 17 mph 1007.9mb 90f
3:36 10 18 mph 1007.8mb 91f
3:30 9 18 mph 1007.9mb 91f
3:24 7 13 mph 1007.9mb 91f
3:18 8 15 mph 1008mb 91f
3:12 9 16 mph 1008.1mb 91f
3:06 8 14 mph 1008.1mb 90f
3:00 8 18 mph 1008.1mb 91f
2:54 8 16 mph 1008.1mb 90f
2:48 9 16 mph 1008.1mb 90f
2:42 8 15 mph 1008.2mb 90f
2:36 9 18 mph 1008.2mb 90f
2:30 7 14 mph 1008.2mb 91f
2:24 9 16 mph 1008.3mb 90f
2:18 10 17 mph 1008.3mb 90f
2:12 8 13 mph 1008.3mb 90f
2:06 7 14 mph 1008.3mb 90f
2:00 6 17 mph 1008.4mb 91f
1:54 8 14 mph 1008.3mb 90f
1:48 8 15 mph - -
1:42 7 13 mph 1008.5mb 91f
1:36 7 14 mph 1008.5mb 90f
1:30 8 13 mph 1008.6mb 90f
1:24 7 15 mph 1008.6mb 90f
1:18 8 14 mph 1008.6mb 90f
1:12 8 13 mph 1008.6mb 89f
1:06 7 17 mph 1008.6mb 89f
1:00 8 14 mph 1008.6mb 89f
12:54 8 13 mph 1008.6mb 88f
12:48 5 8 mph 1008.6mb 88f
12:42 6 9 mph 1008.7mb 88f
12:36 6 9 mph 1008.7mb 88f
12:30 7 9 mph 1008.7mb 88f
12:24 5 9 mph 1008.8mb 89f
12:18 5 9 mph 1008.8mb 89f
12:12 7 10 mph 1008.8mb 88f
12:06 6 10 mph 1008.8mb 88f
12:00 6 10 mph 1008.8mb 88f
11:54 6 10 mph 1008.8mb 87f
11:48 7 13 mph 1008.8mb 87f
11:42 6 14 mph 1008.9mb 87f
11:36 5 9 mph 1008.9mb 87f
11:30 6 11 mph 1008.8mb 86f
11:24 5 9 mph 1008.9mb 86f
11:18 7 11 mph 1008.9mb 85f
11:12 6 11 mph 1008.9mb 86f
11:06 7 13 mph 1008.9mb 85f
11:00 6 9 mph 1008.9mb 85f
10:54 6 10 mph 1008.8mb 85f
10:48 7 10 mph 1008.8mb 85f
10:42 5 10 mph 1008.7mb 85f
10:36 5 11 mph 1008.7mb 85f
10:30 5 7 mph 1008.8mb 83f
10:24 6 8 mph 1008.8mb 83f
10:18 5 7 mph 1008.8mb 83f
10:12 6 9 mph 1008.7mb 82f
10:06 5 8 mph 1008.6mb 82f
10:00 5 7 mph 1008.6mb 82f
9:54 2 6 mph 1008.6mb 83f
9:48 2 6 mph 1008.7mb 83f
9:42 3 8 mph 1008.7mb 82f
9:36 6 9 mph 1008.7mb 82f
9:30 5 8 mph 1008.7mb 82f
9:24 5 8 mph 1008.7mb 81f
9:18 3 9 mph 1008.7mb 81f
9:12 5 10 mph 1008.8mb 81f
9:06 5 10 mph 1008.8mb 81f
9:00 6 10 mph 1008.8mb 80f
8:54 6 11 mph 1008.8mb 80f
8:48 5 9 mph 1008.8mb 80f
8:42 3 10 mph 1008.9mb 80f
8:36 3 8 mph 1008.8mb 80f
8:30 5 9 mph 1008.9mb 79f
8:24 5 7 mph 1008.8mb 79f
8:18 5 7 mph 1008.8mb 79f
8:12 3 6 mph 1008.7mb 78f
8:06 3 7 mph 1008.8mb 78f
8:00 3 6 mph 1008.8mb 78f
7:54 2 5 mph 1008.8mb 77f
7:48 2 3 mph 1008.9mb 77f
7:42 2
mph
1008.9mb 76f
7:36 2 5 mph 1008.9mb 76f
7:30 1 3 mph 1008.9mb 75f
7:24 1 3 mph 1008.8mb 75f
7:18  -  2 mph 1008.8mb 75f
7:12  -  2 mph 1008.7mb 74f
7:06 2 3 mph 1008.7mb 74f
7:00 2 5 mph 1008.7mb 74f